Location: Red Rock Farm
(35.2100°N, 97.2200°W)
Time: 11:20:04
(UTC-06:00)

Daily predictions for brighter satellites

Satellite Brightness Start Highest point End
(mag) Time Altitude Azimuth Time Altitude Azimuth Time Altitude Azimuth
SKYMED 2 4.0 18:41:45 10° N 18:46:04 70° WNW 18:50:22 10° SSW
Cosmos 44 3.7 18:43:32 10° NW 18:47:51 60° WSW 18:52:04 10° SSE
GEOS 3 Rocket 4.2 18:43:31 10° NE 18:48:22 37° ESE 18:53:14 10° S
METEOR-M 4.3 18:43:48 10° SSE 18:48:55 50° ENE 18:54:04 10° N
Cosmos 1536 4.2 18:46:36 10° SE 18:49:22 18° E 18:52:09 10° NE
COSMOS 2428 4.2 18:48:24 10° NNE 18:51:50 16° NE 18:55:17 10° E
Cosmos 1633 3.0 18:50:13 10° SSE 18:53:41 41° E 18:57:10 10° NNE
Okean 1 3.3 18:53:01 10° N 18:57:05 70° E 19:01:07 10° SSE
Cosmos 1812 3.1 18:53:27 10° NNW 18:57:17 68° W 19:01:06 10° S
Cosmos 1536 Rocket 3.6 18:56:50 10° N 19:01:17 64° E 19:05:42 10° SSE
Cosmos 2219 3.7 19:04:32 10° S 19:09:46 38° ESE 19:15:02 10° NE
Cosmos 676 Rocket 4.5 19:04:57 10° SSW 19:10:04 64° WNW 19:15:16 10° N
Cosmos 2360 Rocket 2.4 19:06:01 10° N 19:11:31 50° ENE 19:16:59 10° SE
Cosmos 2219 Rocket 3.9 19:10:14 10° NNE 19:12:44 13° NE 19:13:35 13° ENE
DNEPR-1 R/B 4.3 19:13:56 10° NW 19:18:01 52° WSW 19:22:16 10° SSE
Meteor 1-11 Rocket 3.7 19:13:53 10° S 19:19:36 72° E 19:25:29 10° NNE
BREEZE-M DEB (TANK) 2.5 19:16:50 10° SW 19:22:10 85° SE 19:23:46 22° NE
Cosmos 1461 3.9 19:18:47 10° NW 19:22:40 46° WSW 19:26:39 10° S
Cosmos 1602 3.8 19:19:10 10° S 19:23:00 80° W 19:26:56 10° N
Cosmos 1140 Rocket 3.6 19:19:44 10° SSW 19:24:51 79° WNW 19:30:02 10° NNE
Resurs 01 Rocket 2.0 19:21:08 10° SE 19:25:16 42° ENE 19:29:26 10° N
Cosmos 1300 Rocket 3.6 19:21:55 10° S 19:26:18 83° W 19:30:45 10° N
DELTA 2 R/B (1) 3.6 19:22:12 10° WNW 19:27:50 82° NNE 19:31:31 22° ESE
Abrixas rocket 2.2 19:24:53 10° SW 19:28:12 66° SE 19:29:39 30° ENE
ATLAS CENTAUR R/B 2.6 19:25:12 10° SSW 19:30:09 28° SE 19:30:46 26° ESE
OAO 3 Copernicus 4.5 19:27:23 10° W 19:32:26 67° SSW 19:35:29 24° ESE
Cosmos 614 Rocket 3.9 19:27:29 10° SSW 19:32:34 89° WNW 19:37:40 10° NNE
ALOS 2.1 19:29:30 10° SSE 19:34:09 74° ENE 19:38:49 10° N
FREGAT/IRIS 3.7 19:33:02 10° S 19:36:01 48° W 19:39:01 10° NNW
Spot 2 Rocket 3.4 19:35:12 10° SSE 19:40:09 61° ENE 19:45:09 10° N
Helios 1A 3.8 19:40:56 30° ENE 19:40:56 30° ENE 19:44:08 10° N
Resurs 1-3 3.6 19:38:41 10° SSE 19:42:58 56° ENE 19:47:16 10° N
Cosmos 1340 3.8 19:39:42 10° NNW 19:43:21 46° W 19:46:58 10° SSW
Cosmos 2181 Rocket 4.2 19:38:52 10° N 19:45:08 76° W 19:51:28 10° S
Cosmos 2333 Rocket 3.6 19:42:38 10° N 19:46:14 20° NE 19:46:14 20° NE
Cosmos 2208 Rocket 4.1 19:42:01 10° N 19:47:21 54° ENE 19:50:30 24° SE
SL-16 R/B 4.3 19:43:22 10° NW 19:48:03 27° WSW 19:52:45 10° SSW
Cosmos 1850 Rocket 4.3 19:47:01 10° SSW 19:52:17 71° WNW 19:57:37 10° NNE
USA 229 DEB 4.3 19:45:42 10° NNW 19:52:20 39° NE 19:54:32 32° E
USA 229 4.3 19:45:48 10° NNW 19:52:26 39° NE 19:54:36 32° E
OTV 4 2.7 19:51:45 10° SSW 19:52:48 16° S 19:52:48 16° S
HJ-1C 4.2 19:51:03 10° S 19:54:21 52° W 19:57:39 10° NNW
Helios 1B rocket 2.4 19:54:33 35° NE 19:56:05 59° E 20:00:10 10° S
Cosmos 2074 Rocket 3.9 19:50:03 10° S 19:56:17 83° E 20:02:35 10° N
Envisat 4.5 19:58:42 21° NNE 19:58:42 21° NNE 20:00:51 10° NNE
Tiangong 2 2.5 19:55:31 10° W 19:58:14 29° SW 19:58:32 28° SSW
Cosmos 2184 Rocket 3.9 19:53:00 10° S 19:59:19 84° E 20:05:38 10° N
FengYun 1-2 T 4.5 19:54:26 10° S 19:59:52 69° WSW 20:05:22 10° NNW
Okean 1 Rocket 4.3 19:57:02 10° SSW 20:01:17 43° W 20:05:35 10° N
Genesis I 3.4 19:59:48 10° NNW 20:03:08 54° NNE 20:03:08 54° NNE
Meteor 1-5 Rocket 4.3 20:00:52 10° S 20:06:51 87° W 20:12:49 10° N
FENGYUN 3A 4.3 20:01:40 10° S 20:06:57 56° W 20:12:18 10° NNW
Hubble Space Telescope 2.6 20:04:19 10° SW 20:06:47 21° S 20:06:47 21° S
BREEZE-M DEB (TANK) 3.0 20:13:59 10° NW 20:17:07 63° NE 20:17:20 62° NE
CZ-2D R/B 3.7 20:18:53 59° WNW 20:18:53 59° WNW 20:22:18 10° NNW
GPS 2-04 Rocket1 3.2 20:17:21 10° WSW 20:21:01 63° WSW 20:21:01 63° WSW
Nadezhda 3 Rocket 4.3 20:16:39 10° N 20:21:26 45° NE 20:21:26 45° NE
H-2A R/B 4.1 20:21:38 20° SSW 20:23:44 36° W 20:27:12 10° NNW
Cosmos 1025 Rocket 3.6 20:19:51 10° NNW 20:24:09 57° W 20:25:45 35° SSW
Atlas Centaur 2 4.2 20:23:20 10° SSW 20:26:14 17° S 20:26:14 17° S
Cosmos 2154 Rocket 3.9 20:21:59 10° S 20:28:17 75° E 20:34:38 10° N
Cosmos 2285 Rocket 3.9 20:25:08 10° NNW 20:31:37 85° ENE 20:32:47 62° SSE
Meteor 2-13 Rocket 4.5 20:27:30 10° S 20:33:33 76° W 20:39:39 10° N
COSMOS 2428 2.9 20:30:58 10° NNW 20:36:37 67° WSW 20:37:44 54° SSW
Cosmos 2333 4.2 20:32:12 10° NNW 20:37:56 77° WSW 20:38:23 72° SSW
Cosmos 2237 Rocket 3.7 20:35:17 10° N 20:37:44 24° N 20:37:44 24° N
Cosmos 2219 Rocket 3.1 20:51:44 10° NNW 20:55:22 42° NNW 20:55:22 42° NNW
Cosmos 2227 Rocket 4.2 20:54:07 10° SSW 20:55:24 17° SSW 20:55:24 17° SSW
Cosmos 2333 Rocket 4.1 21:25:51 10° NNW 21:28:17 25° NW 21:28:17 25° NW
